XW-4 (CAS-10)

Last updated on Tue Mar 14 2023 00:02:07 GMT+0000 (Coordinated Universal Time)

1 54816U 21035C 23072.25043904 .02330371 77621-5 12756-2 0 9996 2 54816 41.5077 9.4914 0017840 162.4710 197.7314 16.18206266 13316

Satellite not in orbit

XW-4 (CAS-10)